Flag for Sierra Leone Weather past 2 weeks in Bo, Sierra Leone

Now
79 °F

Passing clouds.


Feels Like: 82 °F
Forecast: 70 / 97 °F
Wind: 3 mph from Southwest

Location: Roberts Field

Current Time: Jan 28, 2015 at 9:23:57 AM

Latest Report: Jan 28, 2015 at 9:00 AM


Visibility: 5 mi

Pressure: 29.92 "Hg

Humidity: 89%

Dew point: 75 °F

Location of BoLocation

Historic Weather in Bo — Graph

°F

Bo temperature yesterday

Maximum temperature yesterday: 91 °F (at 2:00 PM)
Minimum temperature yesterday: 79 °F (at 12:00 AM)
Average temperature yesterday: 83 °F

Past Weeks' High & Low Weather Summary

 TemperatureHumidityPressure
High93 °F (Jan 13, 2:30 PM)100% (Jan 18, 3:30 AM)29.98 "Hg (Jan 18, 3:30 AM)
Low50 °F (Jan 19, 4:30 AM)35% (Jan 14, 3:30 PM)29.77 "Hg (Jan 20, 1:30 PM)
Average80 °F81%29.89 "Hg
* Reported Jan 13 8:00 AM — Jan 28 8:30 AM, Bo, Weather by CustomWeather, © 2014

Note: Actual official high and low records may vary slightly from our data, if they occured in-between our weather recording intervals... More about our weather records

Advertising

Bo weather history for previous 24 hours

 ConditionsComfort  
Time TempWeatherWind HumidityBarometerVisibility
8:30 AM
Jan 28
79 °FScattered clouds.No wind94%29.92 "Hg5 mi
8:00 AM77 °FScattered clouds.No wind94%29.89 "Hg4 mi
7:30 AM77 °FPassing clouds.No wind94%29.89 "Hg3 mi
6:30 AM75 °FPassing clouds.3 mph94%29.86 "HgN/A
6:00 AM77 °FPassing clouds.No wind94%29.86 "HgN/A
5:00 AM77 °FPassing clouds.No wind94%29.86 "HgN/A
4:00 AM77 °FPassing clouds.No wind94%29.86 "HgN/A
3:30 AM77 °FPassing clouds.No wind94%29.89 "HgN/A
3:00 AM77 °FPassing clouds.No wind94%29.89 "HgN/A
1:30 AM77 °FPassing clouds.No wind94%29.89 "HgN/A
1:00 AM79 °FPassing clouds.No wind94%29.89 "HgN/A
12:30 AM79 °FPassing clouds.No wind94%29.89 "HgN/A
12:00 AM79 °FPassing clouds.No wind94%29.89 "HgN/A
11:00 PM
Jan 27
79 °FPassing clouds.No wind94%29.92 "HgN/A
10:30 PM79 °FPassing clouds.No wind89%29.92 "HgN/A
10:00 PM79 °FPassing clouds.No wind89%29.92 "HgN/A
8:00 PM81 °FPartly cloudy.No wind89%29.89 "HgN/A
7:30 PM81 °FBroken clouds.No wind89%29.86 "HgN/A
7:00 PM82 °FScattered clouds.3 mph84%29.86 "HgN/A
6:30 PM82 °FScattered clouds.6 mph79%29.83 "HgN/A
6:00 PM82 °FScattered clouds.9 mph79%29.83 "HgN/A
5:30 PM84 °FScattered clouds.12 mph74%29.83 "HgN/A
5:00 PM84 °FScattered clouds.6 mph79%29.83 "HgN/A
4:30 PM86 °FScattered clouds.9 mph75%29.80 "HgN/A
4:00 PM88 °FBroken clouds.12 mph70%29.80 "HgN/A
3:30 PM88 °FScattered clouds.10 mph70%29.80 "HgN/A
3:00 PM90 °FScattered clouds.12 mph67%29.83 "HgN/A
2:30 PM88 °FBroken clouds.9 mph70%29.83 "HgN/A
2:00 PM91 °FPartly sunny.7 mph59%29.83 "HgN/A
1:30 PM90 °FPartly sunny.12 mph63%29.86 "HgN/A
1:00 PM90 °FScattered clouds.7 mph63%29.86 "HgN/A
12:30 PM88 °FPartly sunny.10 mph66%29.89 "HgN/A
12:00 PM88 °FPartly sunny.9 mph66%29.89 "HgN/A
11:30 AM86 °FPartly sunny.12 mph75%29.89 "HgN/A
11:00 AM84 °FPartly sunny.7 mph79%29.92 "HgN/A
10:30 AM84 °FPartly sunny.14 mph79%29.92 "HgN/A
10:00 AM82 °FPartly sunny.9 mph84%29.92 "HgN/A
9:30 AM81 °FPartly sunny.8 mph89%29.92 "HgN/A
9:00 AM81 °FPartly sunny.No wind89%29.92 "Hg6 mi
Weather by CustomWeather, © 2014

See weather overviewHow to use our weather pages